Location: Eboldshausen
(51.7766°N, 10.0050°E)
Time: 17:12:01
(UTC+00:00)

Cosmos 1484 Rocket - Pass Details

Date: 15 November 2025
Orbit: 442 x 473 km, 97.6° (Epoch: 09 December)

Event Time Altitude Azimuth Distance (km) Brightness Sun altitude
Rises 16:30:08 0° 184° (S) 2,497 6.5 -9.4°
Reaches altitude 10° 16:32:16 10° 193° (SSW) 1,631 5.7 -9.7°
Maximum altitude 16:35:33 37° 262° (W) 761 4.3 -10.2°
Drops below altitude 10° 16:38:52 10° 331° (NNW) 1,657 5.4 -10.7°
Sets 16:41:04 0° 340° (NNW) 2,544 6.3 -11.0°
